Regional Weather Roundup
Issued by NWS Memphis, TN

Home | Current Version | Previous Version | Text Only | Print | Product List | Glossary On
Versions: 1 2 3 4 5 6 7 8 9 10 11 12 13 14 15 16 17 18 19 20 21 22 23 24 25 26 27 28 29 30 31 32 33 34 35 36 37 38 39 40 41 42 43 44 45 46 47 48 49 50
000
ASUS44 KMEG 242010
RWRMEG
MEMPHIS CWA HOURLY WEATHER ROUNDUP
NATIONAL WEATHER SERVICE MEMPHIS TN
300 PM CDT THU APR 24 2014

...WEST TENNESSEE...

CITY           SKY/WX    TMP DP  RH WIND       PRES   REMARKS
MEMPHIS INTL   PTSUNNY   81  55  40 SW12G23   29.81F
NWS MEMPHIS      N/A     81 N/A N/A MISG        N/A
JACKSON        PTSUNNY   80  51  36 SW15      29.84F
LEXINGTON      SUNNY     79  46  31 S10       29.85F
SAVANNAH       PTSUNNY   81  49  32 SW14      29.86F
DYERSBURG      PTSUNNY   79  48  34 S14G20    29.82F
UNION CITY     SUNNY     77  50  38 S8        29.81F
PARIS          PTSUNNY   76  46  34 S9        29.85F


...EASTERN ARKANSAS...

CITY           SKY/WX    TMP DP  RH WIND       PRES   REMARKS
JONESBORO      CLOUDY    77  58  51 S13       29.72F
WEST MEMPHIS   MOSUNNY   81  54  39 S17G30    29.78F
BATESVILLE     CLOUDY    72  59  64 S5        29.73F
NEWPORT        CLOUDY    77  60  55 S17       29.74F
WALNUT RIDGE   CLOUDY    75  52  43 S17       29.71F
BLYTHEVILLE    PTSUNNY   80  52  37 SW12G26   29.79F
NW BLYTHEVILLE PTSUNNY   82  54  36 SW22G30   29.76F
SEARCY         CLOUDY    76  59  55 S13       29.75F
STUTTGART      MOSUNNY   81  57  44 S20G25    29.73F
PINE BLUFF     MOSUNNY   77  60  55 S10G18    29.75F THUNDER
MONTICELLO     PTSUNNY   81  61  50 S13G23    29.75F


...NORTH MISSISSIPPI...

CITY           SKY/WX    TMP DP  RH WIND       PRES   REMARKS
TUPELO         CLOUDY    81  52  36 SW10      29.86F
OXFORD         CLOUDY    81  54  39 S7        29.86F
OLIVE BRANCH   PTSUNNY   81  55  41 S13G22    29.82F
TUNICA         MOSUNNY   81  55  41 S14       29.80F
CLARKSDALE       N/A     82  57  42 S17G32    29.79F
CORINTH        CLOUDY    79  48  34 SW13G20   29.86F
GRENADA        CLOUDY    79  54  41 SW9G20    29.85F
GREENWOOD      CLOUDY    82  59  45 SW17      29.85F
COLUMBUS       CLOUDY    82  56  41 S9        29.88F
STARKVILLE     FAIR      81  54  39 S5        29.88F
GOLDEN TRIANGL PTSUNNY   81  55  41 SW12      29.91F


...SOUTHEAST MISSOURI...

CITY           SKY/WX    TMP DP  RH WIND       PRES   REMARKS
DONIPHAN         N/A     74  54  48 S15G31      N/A
WEST PLAINS    CLOUDY    72  53  51 S14       29.71R
POPLAR BLUFF   CLOUDY    79  53  40 S18G31    29.71F
CAPE GIRARDEAU PTSUNNY   79  51  37 SW16G24   29.75F


...NORTHWEST ALABAMA...

CITY           SKY/WX    TMP DP  RH WIND       PRES   REMARKS
MUSCLE SHOALS  PTSUNNY   82  51  34 S12       29.88F


...MIDDLE TENNESSEE...

CITY           SKY/WX    TMP DP  RH WIND       PRES   REMARKS
NASHVILLE      PTSUNNY   80  40  23 SW12G22   29.88F
CLARKSVILLE    PTSUNNY   76  42  29 S13G18    29.85F
DICKSON        PTSUNNY   79  39  24 SW10      29.86F
COLUMBIA       SUNNY     79  59  50 S13       29.86F
LEWISBURG      MOSUNNY   81  51  35 SW9       29.89F


...WESTERN KENTUCKY...

CITY           SKY/WX    TMP DP  RH WIND       PRES   REMARKS
PADUCAH        PTSUNNY   80  45  28 S10G24    29.80F
FORT CAMPBELL  PTSUNNY   79  39  23 W10       29.85F


...CENTRAL ARKANSAS...

CITY           SKY/WX    TMP DP  RH WIND       PRES   REMARKS
LITTLE ROCK    TSTM      73  63  70 SW3       29.72F FOG


SKY/WX REPORTED AS FAIR MEANS FEW OR NO CLOUDS BELOW
12 THOUSAND FEET.




USA.gov is the U.S. government's official web portal to all federal, state and local government web resources and services.